CLEAR LAKE SECOND OUTFLOW CHANNE TX US USGS current weather conditions

sailwx.info

Wind from 004 at 11 knots

Last reported at 2019-Dec-07 08:45 UTC.
Time now 2019-Dec-07 09:37 UTC

Location: N 29°33' W 095°02'.
View on Google Maps.

See reports from other nearby stations

  
Tides and Currents Weather Stations Pressure Air Temp Water Temp Dewpoint Dewpoint Depression Visibility Wind Speed Wind Dir Waves Ship Positions
date/time (UTC)wind fromknots sea level pressurealtimeterstation pressurevisibilityair tempwater tempwave heightnotes
2019-Dec-07 08:45 004 11
2019-Dec-07 07:45 350 8
2019-Dec-07 06:45 353 10
2019-Dec-07 05:45 354 8
2019-Dec-07 04:45 356 9
2019-Dec-07 03:45 332 8
2019-Dec-07 02:45 003 6
2019-Dec-07 01:45 358 9
2019-Dec-07 00:45 001 11
2019-Dec-06 23:45 002 9
2019-Dec-06 22:45 357 8
2019-Dec-06 21:45 329 6
2019-Dec-06 20:45 296 8
2019-Dec-06 19:45 300 5
2019-Dec-06 18:45 311 11
2019-Dec-06 17:45 291 11
2019-Dec-06 16:45 278 13
2019-Dec-06 15:45 282 10
2019-Dec-06 15:01 271 13
2019-Dec-06 14:45 274 11
2019-Dec-06 13:45 260 9
2019-Dec-06 12:45 250 3
2019-Dec-06 11:45 250 3
2019-Dec-06 10:45 244 3
2019-Dec-06 09:45 223 4
2019-Dec-06 08:45 146 2
2019-Dec-06 07:45 184 2
2019-Dec-06 06:45 180 2
2019-Dec-06 05:45 164 3
2019-Dec-06 04:45 184 1
2019-Dec-06 03:45 154 3
2019-Dec-06 02:45 149 2
2019-Dec-06 01:45 083 2
2019-Dec-06 00:45 105 3
2019-Dec-05 23:45 128 4
2019-Dec-05 22:45 172 3
2019-Dec-05 21:45 187 7
2019-Dec-05 20:45 179 11
2019-Dec-05 19:45 122 8
2019-Dec-05 18:45 135 8
2019-Dec-05 17:45 112 9
2019-Dec-05 16:45 099 6
2019-Dec-05 15:45 116 5
2019-Dec-05 15:00 098 2
2019-Dec-05 14:45 108 4
2019-Dec-05 13:45 089 5
2019-Dec-05 12:45 105 4
2019-Dec-05 11:45 069 3
2019-Dec-05 10:45 100 0
2019-Dec-05 09:45 347 1